Time,TemperatureF,DewpointF,PressureIn,WindDirection,WindDirectionDegrees,WindSpeedMPH,WindSpeedGustMPH,Humidity,HourlyPrecipIn,Conditions,Clouds,dailyrainin,SoftwareType,DateUTC
2013-05-12 00:00:00,31.0,23.0,-100.00,East,93,0.0,2.0,72,-99.99,,,-99.99,,2013-05-12 06:00:00,
2013-05-12 00:42:00,31.0,23.0,-100.00,East,93,0.0,2.0,72,-99.99,,,-99.99,,2013-05-12 06:42:00,
2013-05-12 00:52:00,31.0,23.0,-100.00,East,93,0.0,2.0,72,-99.99,,,-99.99,,2013-05-12 06:52:00,
2013-05-12 01:00:00,31.0,23.0,-100.00,East,87,1.0,2.0,73,-99.99,,,-99.99,,2013-05-12 07:00:00,
2013-05-12 01:42:00,31.0,23.0,-100.00,East,87,1.0,2.0,73,-99.99,,,-99.99,,2013-05-12 07:42:00,
2013-05-12 01:52:00,31.0,23.0,-100.00,East,87,1.0,2.0,73,-99.99,,,-99.99,,2013-05-12 07:52:00,
2013-05-12 02:00:00,31.0,23.0,-100.00,East,94,0.0,2.0,72,-99.99,,,-99.99,,2013-05-12 08:00:00,
2013-05-12 02:42:00,31.0,23.0,-100.00,East,94,0.0,2.0,72,-99.99,,,-99.99,,2013-05-12 08:42:00,
2013-05-12 02:53:00,31.0,23.0,-100.00,East,94,0.0,2.0,72,-99.99,,,-99.99,,2013-05-12 08:53:00,
2013-05-12 03:00:00,32.0,28.0,-100.00,North,354,2.0,13.0,88,-99.99,,,-99.99,,2013-05-12 09:00:00,
2013-05-12 03:43:00,32.0,28.0,-100.00,North,354,2.0,13.0,88,-99.99,,,-99.99,,2013-05-12 09:43:00,
2013-05-12 03:53:00,32.0,28.0,-100.00,North,354,2.0,13.0,88,-99.99,,,-99.99,,2013-05-12 09:53:00,
2013-05-12 04:00:00,30.0,29.0,-100.00,SSE,154,0.0,4.0,96,-99.99,,,-99.99,,2013-05-12 10:00:00,
2013-05-12 04:42:00,30.0,29.0,-100.00,SSE,154,0.0,4.0,96,-99.99,,,-99.99,,2013-05-12 10:42:00,
2013-05-12 04:52:00,30.0,29.0,-100.00,SSE,154,0.0,4.0,96,-99.99,,,-99.99,,2013-05-12 10:52:00,
2013-05-12 05:00:00,29.0,28.0,-100.00,ESE,110,1.0,3.0,96,-99.99,,,-99.99,,2013-05-12 11:00:00,
2013-05-12 05:42:00,29.0,28.0,-100.00,ESE,110,1.0,3.0,96,-99.99,,,-99.99,,2013-05-12 11:42:00,
2013-05-12 05:52:00,29.0,28.0,-100.00,ESE,110,1.0,3.0,96,-99.99,,,-99.99,,2013-05-12 11:52:00,
2013-05-12 06:00:00,28.0,27.0,-100.00,East,101,1.0,2.0,97,-99.99,,,-99.99,,2013-05-12 12:00:00,
2013-05-12 06:42:00,28.0,27.0,-100.00,East,101,1.0,2.0,97,-99.99,,,-99.99,,2013-05-12 12:42:00,
2013-05-12 06:52:00,28.0,27.0,-100.00,East,101,1.0,2.0,97,-99.99,,,-99.99,,2013-05-12 12:52:00,
2013-05-12 07:00:00,28.0,27.0,-100.00,East,96,1.0,2.0,96,-99.99,,,-99.99,,2013-05-12 13:00:00,
2013-05-12 07:42:00,28.0,27.0,-100.00,East,96,1.0,2.0,96,-99.99,,,-99.99,,2013-05-12 13:42:00,
2013-05-12 07:52:00,28.0,27.0,-100.00,East,96,1.0,2.0,96,-99.99,,,-99.99,,2013-05-12 13:52:00,
2013-05-12 08:00:00,31.0,29.0,-100.00,ENE,70,0.0,2.0,93,-99.99,,,-99.99,,2013-05-12 14:00:00,
2013-05-12 08:42:00,31.0,29.0,-100.00,ENE,70,0.0,2.0,93,-99.99,,,-99.99,,2013-05-12 14:42:00,
2013-05-12 08:52:00,31.0,29.0,-100.00,ENE,70,0.0,2.0,93,-99.99,,,-99.99,,2013-05-12 14:52:00,
2013-05-12 09:00:00,35.0,29.0,-100.00,North,353,1.0,8.0,79,-99.99,,,-99.99,,2013-05-12 15:00:00,
2013-05-12 09:42:00,35.0,29.0,-100.00,North,353,1.0,8.0,79,-99.99,,,-99.99,,2013-05-12 15:42:00,
2013-05-12 09:53:00,35.0,29.0,-100.00,North,353,1.0,8.0,79,-99.99,,,-99.99,,2013-05-12 15:53:00,
2013-05-12 10:00:00,40.0,26.0,-100.00,North,352,5.0,15.0,56,-99.99,,,-99.99,,2013-05-12 16:00:00,
2013-05-12 10:42:00,40.0,26.0,-100.00,North,352,5.0,15.0,56,-99.99,,,-99.99,,2013-05-12 16:42:00,
2013-05-12 10:53:00,40.0,26.0,-100.00,North,352,5.0,15.0,56,-99.99,,,-99.99,,2013-05-12 16:53:00,
2013-05-12 11:00:00,43.0,25.0,-100.00,NNW,342,5.0,16.0,48,-99.99,,,-99.99,,2013-05-12 17:00:00,
2013-05-12 11:42:00,43.0,25.0,-100.00,NNW,342,5.0,16.0,48,-99.99,,,-99.99,,2013-05-12 17:42:00,
2013-05-12 11:53:00,43.0,25.0,-100.00,NNW,342,5.0,16.0,48,-99.99,,,-99.99,,2013-05-12 17:53:00,
2013-05-12 12:00:00,46.0,24.0,-100.00,NNW,334,5.0,18.0,43,-99.99,,,-99.99,,2013-05-12 18:00:00,
2013-05-12 12:42:00,46.0,24.0,-100.00,NNW,334,5.0,18.0,43,-99.99,,,-99.99,,2013-05-12 18:42:00,
2013-05-12 12:52:00,46.0,24.0,-100.00,NNW,334,5.0,18.0,43,-99.99,,,-99.99,,2013-05-12 18:52:00,
2013-05-12 13:00:00,47.0,23.0,-100.00,NNW,340,5.0,17.0,39,-99.99,,,-99.99,,2013-05-12 19:00:00,
2013-05-12 13:42:00,47.0,23.0,-100.00,NNW,340,5.0,17.0,39,-99.99,,,-99.99,,2013-05-12 19:42:00,
2013-05-12 13:52:00,47.0,23.0,-100.00,NNW,340,5.0,17.0,39,-99.99,,,-99.99,,2013-05-12 19:52:00,
2013-05-12 14:00:00,48.0,22.0,-100.00,NNW,344,6.0,18.0,35,-99.99,,,-99.99,,2013-05-12 20:00:00,
2013-05-12 14:42:00,48.0,22.0,-100.00,NNW,344,6.0,18.0,35,-99.99,,,-99.99,,2013-05-12 20:42:00,
2013-05-12 14:52:00,48.0,22.0,-100.00,NNW,344,6.0,18.0,35,-99.99,,,-99.99,,2013-05-12 20:52:00,
2013-05-12 15:00:00,48.0,22.0,-100.00,NNW,344,5.0,16.0,35,-99.99,,,-99.99,,2013-05-12 21:00:00,
2013-05-12 15:42:00,48.0,22.0,-100.00,NNW,344,5.0,16.0,35,-99.99,,,-99.99,,2013-05-12 21:42:00,
2013-05-12 15:53:00,48.0,22.0,-100.00,NNW,344,5.0,16.0,35,-99.99,,,-99.99,,2013-05-12 21:53:00,
2013-05-12 16:00:00,48.0,23.0,-100.00,NNW,341,5.0,16.0,36,-99.99,,,-99.99,,2013-05-12 22:00:00,
2013-05-12 16:42:00,48.0,23.0,-100.00,NNW,341,5.0,16.0,36,-99.99,,,-99.99,,2013-05-12 22:42:00,
2013-05-12 16:52:00,48.0,23.0,-100.00,NNW,341,5.0,16.0,36,-99.99,,,-99.99,,2013-05-12 22:52:00,
2013-05-12 17:00:00,50.0,23.0,-100.00,NNW,329,4.0,17.0,35,-99.99,,,-99.99,,2013-05-12 23:00:00,
2013-05-12 17:42:00,50.0,23.0,-100.00,NNW,329,4.0,17.0,35,-99.99,,,-99.99,,2013-05-12 23:42:00,
2013-05-12 17:52:00,50.0,23.0,-100.00,NNW,329,4.0,17.0,35,-99.99,,,-99.99,,2013-05-12 23:52:00,
2013-05-12 18:00:00,51.0,22.0,-100.00,NNW,335,5.0,19.0,31,-99.99,,,-99.99,,2013-05-13 00:00:00,
2013-05-12 18:42:00,51.0,22.0,-100.00,NNW,335,5.0,19.0,31,-99.99,,,-99.99,,2013-05-13 00:42:00,
2013-05-12 18:52:00,51.0,22.0,-100.00,NNW,335,5.0,19.0,31,-99.99,,,-99.99,,2013-05-13 00:52:00,
2013-05-12 19:00:00,50.0,23.0,-100.00,NNW,340,5.0,16.0,35,-99.99,,,-99.99,,2013-05-13 01:00:00,
2013-05-12 19:42:00,50.0,23.0,-100.00,NNW,340,5.0,16.0,35,-99.99,,,-99.99,,2013-05-13 01:42:00,
2013-05-12 19:52:00,50.0,23.0,-100.00,NNW,340,5.0,16.0,35,-99.99,,,-99.99,,2013-05-13 01:52:00,
2013-05-12 20:00:00,45.0,24.0,-100.00,North,11,1.0,6.0,43,-99.99,,,-99.99,,2013-05-13 02:00:00,
2013-05-12 20:42:00,45.0,24.0,-100.00,North,11,1.0,6.0,43,-99.99,,,-99.99,,2013-05-13 02:42:00,
2013-05-12 20:52:00,45.0,24.0,-100.00,North,11,1.0,6.0,43,-99.99,,,-99.99,,2013-05-13 02:52:00,
2013-05-12 21:00:00,41.0,24.0,-100.00,NE,49,1.0,2.0,52,-99.99,,,-99.99,,2013-05-13 03:00:00,
2013-05-12 21:42:00,41.0,24.0,-100.00,NE,49,1.0,2.0,52,-99.99,,,-99.99,,2013-05-13 03:42:00,
2013-05-12 21:53:00,41.0,24.0,-100.00,NE,49,1.0,2.0,52,-99.99,,,-99.99,,2013-05-13 03:53:00,
2013-05-12 22:00:00,40.0,24.0,-100.00,ENE,59,1.0,2.0,53,-99.99,,,-99.99,,2013-05-13 04:00:00,
2013-05-12 22:42:00,40.0,24.0,-100.00,ENE,59,1.0,2.0,53,-99.99,,,-99.99,,2013-05-13 04:42:00,
2013-05-12 22:53:00,40.0,24.0,-100.00,ENE,59,1.0,2.0,53,-99.99,,,-99.99,,2013-05-13 04:53:00,
2013-05-12 23:00:00,37.0,24.0,-100.00,East,97,1.0,2.0,58,-99.99,,,-99.99,,2013-05-13 05:00:00,
2013-05-12 23:42:00,37.0,24.0,-100.00,East,97,1.0,2.0,58,-99.99,,,-99.99,,2013-05-13 05:42:00,
2013-05-12 23:52:00,37.0,24.0,-100.00,East,97,1.0,2.0,58,-99.99,,,-99.99,,2013-05-13 05:52:00,